Cloud_Cover
0 0 0 0 0 0 0 0 0 0 1 0 0 0 5 51 4 5 5 5 5 5 0 0 0 0 0 0 0 0 0 0 0 0 0 0 0 0 0 0 0 0 0 0
0 0 0 0 0 0 0 0 2 0 0 0 0 0 0 5 5 5 5 59 68 6 0 0 0 0 0 0 0 0 0 0 0 0 0 0 0 0 0 0 0 0 0 0
0 0 0 0 0 0 0 0 1 0 0 0 2 2 67 0 1 4 15 27 62 42 4 2 2 0 0 0 0 0 0 0 0 4 1 2 0 0 0 0 0 0 0 0
0 0 0 0 0 0 0 0 0 0 0 0 11 2 5 84 50 30 68 85 42 79 5 5 5 5 4 0 0 0 0 0 1 6 18 19 20 2 3 0 0 0 0 0
0 0 0 0 0 0 0 0 0 0 0 0 0 24 92 92 100 32 68 100 86 10 5 5 5 5 5 1 4 1 0 2 11 100 86 100 83 11 6 26 11 0 0 0
0 0 0 0 0 0 0 0 0 0 3 2 96 1 95 20 100 42 58 51 82 20 5 5 5 5 5 5 4 4 0 0 14 82 78 100 100 92 99 73 32 19 13 0
0 0 0 0 0 0 0 3 1 0 98 100 17 0 86 30 16 3 1 26 97 83 9 5 5 5 5 5 5 1 0 1 3 9 26 98 99 100 100 99 9 78 9 3
0 0 0 0 0 0 0 0 10 35 0 4 1 62 100 6 50 0 35 100 100 98 12 5 5 4 5 5 5 4 0 0 0 1 11 28 71 100 100 90 43 100 98 53
0 0 0 0 0 0 73 5 1 4 2 0 33 73 5 4 49 72 52 85 97 14 5 5 5 5 5 5 5 5 5 0 0 0 3 25 99 100 100 93 100 100 92 100
0 0 0 0 0 0 0 0 13 88 41 2 1 62 75 3 100 5 2 70 75 74 5 5 5 5 5 5 5 25 5 5 0 0 16 88 100 100 100 100 100 100 100 100
0 0 0 0 0 11 2 30 3 2 24 64 4 21 96 58 11 5 6 100 81 10 5 5 5 5 5 5 5 5 5 2 6 66 100 100 100 100 100 100 100 100 100 100
1 0 0 0 0 0 0 0 0 5 35 32 46 13 9 10 4 78 100 98 29 66 5 5 5 5 5 5 5 5 0 1 78 87 82 81 100 100 99 99 100 100 100 100
2 0 0 5 9 7 0 2 5 5 20 14 85 3 84 100 26 33 100 81 95 9 5 5 5 5 5 5 1 0 9 82 100 100 100 96 100 100 100 100 100 100 100 100
2 4 75 92 61 20 2 5 58 5 46 89 84 100 100 98 100 91 71 74 28 9 6 5 5 5 5 3 0 14 47 100 100 100 100 100 100 100 100 100 100 100 100 100
5 56 19 74 100 100 96 100 90 5 20 100 90 99 100 34 85 97 11 5 39 47 5 5 5 5 5 1 29 74 93 100 100 100 100 99 97 100 100 100 100 100 100 100
100 100 77 62 68 100 100 100 91 98 56 100 98 100 8 100 97 9 5 44 36 5 5 5 5 5 5 55 98 85 100 100 100 100 100 100 100 100 100 100 100 100 100 100
100 100 100 100 100 100 100 100 98 67 80 100 100 100 98 42 66 26 27 94 85 22 5 5 5 7 100 97 100 100 100 100 100 100 100 100 100 100 100 100 100 100 100 100
100 100 100 100 100 100 77 100 99 62 88 5 71 96 91 92 65 4 94 100 95 16 5 5 8 100 100 87 98 100 100 100 100 100 100 100 100 100 100 100 100 100 100 100
100 100 100 100 100 100 97 75 100 94 65 73 55 20 96 30 5 57 99 10 3 5 5 12 77 100 97 98 100 100 100 100 100 100 100 100 100 100 100 100 100 100 100 100
100 100 100 100 100 97 100 80 100 25 20 98 27 67 80 5 5 34 4 19 11 5 5 30 80 100 100 100 100 100 100 100 100 100 100 100 100 100 100 100 100 100 100 100
79 78 64 93 25 60 80 71 100 68 93 8 21 3 5 5 5 5 5 19 2 5 10 7 100 100 100 100 100 100 100 100 100 100 100 100 100 100 100 100 100 100 100 100
100 88 99 96 99 100 100 83 100 100 100 40 5 0 1 5 5 5 85 5 5 5 18 92 100 100 100 100 100 100 100 100 100 100 100 100 100 100 100 100 100 100 100 100
5 42 88 98 100 98 99 88 100 100 82 88 5 3 5 5 15 76 88 67 5 9 52 100 100 100 100 100 100 100 100 100 100 100 100 100 100 100 100 100 100 100 100 100
99 12 10 59 99 98 95 100 86 100 100 100 15 5 5 70 86 99 97 21 5 11 99 100 100 100 100 100 100 100 100 100 100 100 100 100 100 100 100 100 100 100 100 100
98 60 21 6 52 94 77 41 99 100 100 100 5 5 5 93 100 99 79 25 4 12 100 100 100 100 100 100 100 100 100 100 100 100 100 100 100 100 100 100 100 100 100 100
100 70 5 8 92 93 100 82 100 91 76 41 5 5 42 90 100 77 66 6 1 90 100 100 100 100 100 100 100 100 100 100 100 100 100 100 100 100 100 100 100 100 100 100